| time (UTC) | temp F | wind direction | speed MPH | gust MPH | rain 1hr in | rain 24hr in | rain mn in | humidity % | barometer mb |
| 20260901164554 | 98 | 134 | 0.0 | 5.0 | 0.00 | 0.00 | 0.00 | 42 | 1015.3 |
| 20260901163042 | 97 | 139 | 1.0 | 4.0 | 0.00 | 0.00 | 0.00 | 44 | 1015.5 |
| 20260901161537 | 95 | 109 | 0.0 | 2.0 | 0.00 | 0.00 | 0.00 | 49 | 1015.6 |
| 20260901160033 | 93 | 127 | 0.0 | 2.0 | 0.00 | 0.00 | 0.00 | 51 | 1015.6 |
| 20260901154528 | 91 | 174 | 0.0 | 4.0 | 0.00 | 0.00 | 0.00 | 53 | 1015.6 |
| 20260901153035 | 89 | 121 | 0.0 | 2.0 | 0.00 | 0.00 | 0.00 | 56 | 1015.7 |
| 20260901151522 | 88 | 102 | 0.0 | 5.0 | 0.00 | 0.00 | 0.00 | 57 | 1015.7 |
| 20260901150019 | 87 | 179 | 0.0 | 3.0 | 0.00 | 0.00 | 0.00 | 60 | 1015.7 |
| 20260901144526 | 86 | 96 | 0.0 | 4.0 | 0.00 | 0.00 | 0.00 | 61 | 1015.8 |
| 20260901143012 | 85 | 127 | 1.0 | 6.0 | 0.00 | 0.00 | 0.00 | 62 | 1015.9 |
| 20260901141511 | 84 | 94 | 0.0 | 3.0 | 0.00 | 0.00 | 0.00 | 64 | 1015.9 |
| 20260901140007 | 83 | 96 | 0.0 | 5.0 | 0.00 | 0.00 | 0.00 | 65 | 1015.9 |
| 20260901134503 | 82 | 99 | 0.0 | 2.0 | 0.00 | 0.00 | 0.00 | 66 | 1015.8 |
| 20260901133102 | 80 | 124 | 0.0 | 1.0 | 0.00 | 0.00 | 0.00 | 68 | 1015.9 |
| 20260901131558 | 80 | 95 | 1.0 | 3.0 | 0.00 | 0.00 | 0.00 | 69 | 1016.0 |
| 20260901130054 | 79 | 94 | 0.0 | 2.0 | 0.00 | 0.00 | 0.00 | 69 | 1015.6 |
| 20260901124556 | 78 | 100 | 0.0 | 0.0 | 0.00 | 0.00 | 0.00 | 70 | 1015.5 |
| 20260901123050 | 78 | 96 | 0.0 | 0.0 | 0.00 | 0.00 | 0.00 | 71 | 1015.4 |
| 20260901121558 | 78 | 96 | 0.0 | 2.0 | 0.00 | 0.00 | 0.00 | 70 | 1015.2 |
| 20260901120046 | 77 | 94 | 0.0 | 3.0 | 0.00 | 0.00 | 0.00 | 73 | 1015.0 |
| 20260901114554 | 75 | 115 | 0.0 | 0.0 | 0.00 | 0.00 | 0.00 | 76 | 1015.0 |
| 20260901113043 | 75 | 115 | 0.0 | 0.0 | 0.00 | 0.00 | 0.00 | 75 | 1014.9 |
| 20260901111546 | 76 | 115 | 0.0 | 0.0 | 0.00 | 0.00 | 0.00 | 74 | 1014.9 |
| 20260901110044 | 76 | 115 | 0.0 | 0.0 | 0.00 | 0.00 | 0.00 | 73 | 1014.8 |
| 20260901104535 | 76 | 115 | 0.0 | 0.0 | 0.00 | 0.00 | 0.00 | 72 | 1014.8 |
| 20260901103032 | 77 | 115 | 0.0 | 0.0 | 0.00 | 0.00 | 0.00 | 70 | 1014.7 |
| 20260901101528 | 77 | 115 | 0.0 | 0.0 | 0.00 | 0.00 | 0.00 | 70 | 1014.5 |
| 20260901100026 | 77 | 115 | 0.0 | 0.0 | 0.00 | 0.00 | 0.00 | 68 | 1014.4 |
| 20260901094527 | 77 | 115 | 0.0 | 0.0 | 0.00 | 0.00 | 0.00 | 69 | 1014.4 |
| 20260901093023 | 77 | 110 | 0.0 | 1.0 | 0.00 | 0.00 | 0.00 | 71 | 1014.4 |
| 20260901091529 | 77 | 98 | 0.0 | 0.0 | 0.00 | 0.00 | 0.00 | 71 | 1014.4 |
| 20260901090018 | 78 | 98 | 0.0 | 0.0 | 0.00 | 0.00 | 0.00 | 71 | 1014.3 |
| 20260901084517 | 78 | 98 | 0.0 | 0.0 | 0.00 | 0.00 | 0.00 | 70 | 1014.2 |
| 20260901083016 | 78 | 98 | 0.0 | 0.0 | 0.00 | 0.00 | 0.00 | 70 | 1014.1 |
| 20260901081515 | 79 | 98 | 0.0 | 0.0 | 0.00 | 0.00 | 0.00 | 71 | 1014.1 |
| 20260901080016 | 79 | 98 | 0.0 | 0.0 | 0.00 | 0.00 | 0.00 | 71 | 1014.1 |
| 20260901074514 | 79 | 98 | 0.0 | 0.0 | 0.00 | 0.00 | 0.00 | 71 | 1014.0 |
| 20260901073022 | 79 | 98 | 0.0 | 0.0 | 0.00 | 0.00 | 0.00 | 70 | 1014.0 |
| 20260901071514 | 79 | 98 | 0.0 | 0.0 | 0.00 | 0.00 | 0.00 | 71 | 1014.0 |
| 20260901070023 | 79 | 98 | 0.0 | 0.0 | 0.00 | 0.00 | 0.00 | 71 | 1013.9 |
| 20260901064513 | 79 | 98 | 0.0 | 0.0 | 0.00 | 0.00 | 0.00 | 70 | 1014.0 |
| 20260901063010 | 78 | 98 | 0.0 | 0.0 | 0.00 | 0.00 | 0.00 | 70 | 1014.0 |
| 20260901061510 | 78 | 98 | 0.0 | 0.0 | 0.00 | 0.00 | 0.00 | 71 | 1014.0 |
| 20260901060008 | 78 | 98 | 0.0 | 0.0 | 0.00 | 0.00 | 0.00 | 71 | 1013.9 |
| 20260901054506 | 78 | 98 | 0.0 | 0.0 | 0.00 | 0.00 | 0.00 | 70 | 1013.7 |
| 20260901053002 | 78 | 98 | 0.0 | 0.0 | 0.00 | 0.00 | 0.00 | 70 | 1013.5 |
| 20260901051603 | 79 | 98 | 0.0 | 0.0 | 0.00 | 0.00 | 0.00 | 69 | 1013.4 |
| 20260901050057 | 79 | 98 | 0.0 | 0.0 | 0.00 | 0.00 | 0.00 | 67 | 1013.3 |
| 20260901044556 | 80 | 98 | 0.0 | 0.0 | 0.00 | 0.00 | 0.00 | 66 | 1013.2 |
| 20260901043119 | 81 | 98 | 0.0 | 0.0 | 0.00 | 0.00 | 0.00 | 63 | 1013.1 |
| 20260901041607 | 81 | 98 | 0.0 | 0.0 | 0.00 | 0.00 | 0.00 | 61 | 1013.1 |
| 20260901034604 | 83 | 98 | 0.0 | 0.0 | 0.00 | 0.00 | 0.00 | 57 | 1013.0 |
| 20260901033104 | 82 | 98 | 0.0 | 0.0 | 0.00 | 0.00 | 0.00 | 57 | 1013.0 |
| 20260901031553 | 83 | 94 | 0.0 | 0.0 | 0.00 | 0.00 | 0.00 | 57 | 1012.9 |
| 20260901030053 | 83 | 94 | 0.0 | 0.0 | 0.00 | 0.00 | 0.00 | 55 | 1012.8 |
| 20260901024555 | 84 | 94 | 0.0 | 0.0 | 0.00 | 0.00 | 0.00 | 53 | 1012.6 |
| 20260901023051 | 85 | 94 | 0.0 | 0.0 | 0.00 | 0.00 | 0.00 | 52 | 1012.4 |
| 20260901021552 | 86 | 94 | 0.0 | 0.0 | 0.00 | 0.00 | 0.00 | 49 | 1012.3 |
| 20260901020055 | 87 | 94 | 0.0 | 0.0 | 0.00 | 0.00 | 0.00 | 46 | 1012.1 |
| 20260901014551 | 88 | 94 | 0.0 | 0.0 | 0.00 | 0.00 | 0.00 | 44 | 1012.0 |
| 20260901013049 | 90 | 94 | 0.0 | 0.0 | 0.00 | 0.00 | 0.00 | 42 | 1011.8 |
| 20260901011556 | 91 | 94 | 0.0 | 0.0 | 0.00 | 0.00 | 0.00 | 39 | 1011.7 |
| 20260901010049 | 93 | 94 | 0.0 | 0.0 | 0.00 | 0.00 | 0.00 | 38 | 1011.5 |
| 20260901004548 | 94 | 95 | 0.0 | 1.0 | 0.00 | 0.00 | 0.00 | 37 | 1011.4 |
| 20260901003056 | 95 | 95 | 0.0 | 0.0 | 0.00 | 0.00 | 0.00 | 35 | 1011.4 |
| 20260901001548 | 96 | 134 | 0.0 | 0.0 | 0.00 | 0.00 | 0.00 | 34 | 1011.4 |
| 20260901000046 | 98 | 136 | 0.0 | 1.0 | 0.00 | 0.00 | 0.00 | 33 | 1011.4 |
| 20260831234546 | 98 | 133 | 0.0 | 5.0 | 0.00 | 0.00 | 0.00 | 31 | 1011.4 |
| 20260831233047 | 99 | 97 | 1.0 | 4.0 | 0.00 | 0.00 | 0.00 | 31 | 1011.3 |
| 20260831231545 | 101 | 101 | 0.0 | 3.0 | 0.00 | 0.00 | 0.00 | 29 | 1011.3 |
| 20260831230044 | 102 | 103 | 0.0 | 7.0 | 0.00 | 0.00 | 0.00 | 28 | 1011.3 |
| 20260831224543 | 101 | 131 | 1.0 | 5.0 | 0.00 | 0.00 | 0.00 | 29 | 1011.3 |
| 20260831223043 | 102 | 95 | 1.0 | 5.0 | 0.00 | 0.00 | 0.00 | 28 | 1011.4 |
| 20260831221543 | 101 | 99 | 1.0 | 9.0 | 0.00 | 0.00 | 0.00 | 29 | 1011.5 |
| 20260831220042 | 102 | 94 | 1.0 | 8.0 | 0.00 | 0.00 | 0.00 | 28 | 1011.5 |
| 20260831214543 | 102 | 97 | 0.0 | 9.0 | 0.00 | 0.00 | 0.00 | 28 | 1011.6 |
| 20260831213042 | 102 | 91 | 0.0 | 12.0 | 0.00 | 0.00 | 0.00 | 29 | 1011.8 |
| 20260831211537 | 101 | 121 | 0.0 | 1.0 | 0.00 | 0.00 | 0.00 | 29 | 1011.9 |
| 20260831210038 | 101 | 179 | 0.0 | 6.0 | 0.00 | 0.00 | 0.00 | 30 | 1012.1 |
| 20260831204549 | 101 | 141 | 0.0 | 6.0 | 0.00 | 0.00 | 0.00 | 28 | 1012.2 |
| 20260831203054 | 102 | 94 | 0.0 | 5.0 | 0.00 | 0.00 | 0.00 | 29 | 1012.4 |
| 20260831201535 | 101 | 167 | 0.0 | 7.0 | 0.00 | 0.00 | 0.00 | 30 | 1012.6 |
| 20260831200039 | 102 | 110 | 0.0 | 6.0 | 0.00 | 0.00 | 0.00 | 28 | 1012.8 |
| 20260831194536 | 102 | 137 | 0.0 | 5.0 | 0.00 | 0.00 | 0.00 | 28 | 1012.8 |
| 20260831193034 | 102 | 133 | 0.0 | 8.0 | 0.00 | 0.00 | 0.00 | 29 | 1012.9 |
| 20260831191534 | 102 | 96 | 0.0 | 3.0 | 0.00 | 0.00 | 0.00 | 29 | 1013.2 |
| 20260831190042 | 101 | 128 | 0.0 | 5.0 | 0.00 | 0.00 | 0.00 | 30 | 1013.4 |
| 20260831184532 | 101 | 157 | 0.0 | 5.0 | 0.00 | 0.00 | 0.00 | 31 | 1013.5 |
| 20260831183028 | 101 | 108 | 0.0 | 8.0 | 0.00 | 0.00 | 0.00 | 30 | 1013.7 |
| 20260831181527 | 101 | 175 | 0.0 | 4.0 | 0.00 | 0.00 | 0.00 | 30 | 1013.8 |
| 20260831180031 | 101 | 124 | 1.0 | 7.0 | 0.00 | 0.00 | 0.00 | 32 | 1014.0 |
| 20260831174522 | 100 | 132 | 0.0 | 6.0 | 0.00 | 0.00 | 0.00 | 35 | 1014.3 |
| 20260831173016 | 99 | 142 | 0.0 | 2.0 | 0.00 | 0.00 | 0.00 | 37 | 1014.5 |
| 20260831171515 | 98 | 129 | 0.0 | 7.0 | 0.00 | 0.00 | 0.00 | 38 | 1014.7 |
| 20260831170012 | 98 | 105 | 0.0 | 5.0 | 0.00 | 0.00 | 0.00 | 39 | 1015.0 |